SAOCOM 1A

Last updated on Mon Jun 22 2026 00:02:14 GMT+0000 (Coordinated Universal Time)

1 43641U 18076A 26172.52423670 -.00000206 00000+0 -19356-4 0 9994 2 43641 97.8886 359.2090 0001523 80.8959 279.2427 14.82149058416741
UTC large
Height (km)
Speed (km/s)
/
Latitude / Longitude
Inclination (degrees)
Orbital Period (minutes)
Azimuth
Elevation
Range (km)
Doppler Factor

Next 0 passes for location: London (51.5072 / 0.1276)

No passes found over London.
SAOCOM 1A